www.pogodaiklimat.ru

Погода и климат >> Архив погоды >> Россия >> Коми >> Весляна


ПОГОДА в Весляне

  • Прогноз погоды в Весляне
  • Монитор погоды в Весляне

АРХИВ ПОГОДЫ в Весляне

Время (UTC), дата Ветер
(напр.,м/с)
 
Видим.   Явления Облачность Т
(С)
Тd
(С)
f
(%)
Тe
(С)
Тes
(С)
Комфортность P
(гПа)
Po
(гПа)
Тmin
(С)
Tmax
(С)
R
(мм)
R24
(мм)
S
(см)
18 12.06 СЗ 4
{11}
50 км 10/5 420 м
[Cb cap Ac lent Cs]
+7.0 -0.5 59 +4 +4 1016.2 1003.5
00 13.06 С 4 50 км в посл. час ливневой дождь 10/8 750 м
[Cb cap As op]
+3.6 +0.3 79 -1 -1 1018.2 1005.3
03 13.06 С 5-10
{10}
50 км 9/8 800 м
[Cb calv Ac lent]
+3.9 -0.5 73 -1 -1 1019.5 1006.6 +3.3 0.0
06 13.06 СЗ 5-10
{12}
50 км 9/6 720 м
[Cb cap Ac As]
+6.8 -0.4 60 +3 +4 1020.1 1007.3
09 13.06 СЗ 5-10
{10}
50 км 8/3 1000 м
[Cu hum Ci fib]
+11.1 -1.4 42 +9 +13 1019.2 1006.7
12 13.06 СЗ 6-12
{12}
50 км 5/3 1000 м
[Cu hum Ci fib]
+13.8 -2.2 33 +12 +14 1018.2 1005.7
15 13.06 СЗ 5
{13}
50 км 5/4 1000 м
[Cu med, cong Ac trans Ci fib]
+13.0 -1.0 38 +11 +12 1017.7 1005.2 +14.2
18 13.06 СЗ 3
{11}
50 км ясно +9.2 +0.3 54 +7 +7 1017.5 1004.9
00 14.06 СЗ 2 50 км ясно +2.4 -0.5 81 -1 -1 1016.7 1003.8
03 14.06 С 4 50 км 4/4 1000 м
[Cu hum]
+4.2 -1.0 69 0 +2 1016.2 1003.4 +2.0
06 14.06 СЗ 3 50 км 3/3 1000 м
[Cu hum]
+8.5 -0.6 53 +6 +12 1014.8 1002.2
09 14.06 С 4 50 км 3/3 1000 м
[Cu hum]
+12.6 -1.4 38 +11 +17 1013.3 1000.9
12 14.06 СЗ 4 50 км 1/1 1000 м
[Cu hum]
+14.5 -2.5 31 +14 +19 1012.1 999.8
15 14.06 СЗ 3
{10}
50 км 1/0
[Ci]
+13.7 -4.5 28 +13 +15 1011.3 998.9 +14.6
18 14.06 ЮЗ 1 50 км 5/0
[Ac lent Ci fib]
+7.3 +1.1 65 +7 +7 1010.6 998.0
00 15.06 З 2 16 км слаб. ливневой дождь 10/5 600 м
[Cb cap As op]
+6.8 +6.0 95 +4 +4 1007.8 995.2
03 15.06 С 2 50 км {ливн. осадки} 10/6 840 м
[Cb cap Ac As]
+6.7 +5.6 93 +4 +5 1007.6 995.0 +6.3 3
06 15.06 СЗ 4 50 км {ливн. осадки} 9/8 600 м
[Cb cap Ac As]
+8.0 +4.2 77 +5 +6 1007.4 994.8
09 15.06 СЗ 4
{10}
50 км 9/8 600 м
[Cb cap Ac As]
+10.1 +1.2 54 +8 +9 1007.3 994.9
12 15.06 СЗ 3 12 км слаб. ливневой дождь 9/5 600 м
[Cb cap As trans Cs]
+10.4 +3.4 62 +9 +11 1007.1 994.7
15 15.06 З 2
{10}
50 км 9/5 1000 м
[Cb calv Ac trans Ci fib]
+10.5 +1.8 55 +9 +10 1007.0 994.5 +11.9 0.3
18 15.06 С 3 50 км 8/6 420 м
[Cb calv Ac trans Cc]
+8.1 +2.3 67 +6 +6 1007.5 995.0
00 16.06 СЗ 2 50 км 5/1 600 м
[Cb cap Ci]
+2.8 +1.6 92 -0 -0 1009.0 996.2
03 16.06 СЗ 2 50 км 10/0
[As op]
+4.8 +1.9 81 +2 +3 1008.8 996.1 +2.6
06 16.06 З 3 50 км в посл. час дождь 10/3 300 м
[Frnb As op]
+7.3 +2.9 74 +5 +6 1008.2 995.6
09 16.06 З 3 50 км 9/5 600 м
[Sc Ac trans]
+11.0 +3.1 58 +9 +12 1006.2 993.8
12 16.06 З 5
{10}
50 км {ливн. осадки} 9/3 600 м
[Cb cap Ac As]
+11.5 +3.3 57 +9 +10 1005.3 993.0
15 16.06 З 3
{10}
50 км в посл. час ливневой дождь 10/4 300 м
[Cb cap As op]
+12.0 +6.0 67 +11 +11 1003.9 991.6 +13.4 0.1
18 16.06 ЮЗ 4 10 км в посл. час ливневой дождь 9/9 400 м
[Cb cap]
+9.7 +8.6 93 +7 +7 1002.9 990.5
00 17.06 СЗ 2 50 км {ливн. осадки} 8/5 600 м
[Sc Ac trans]
+4.6 +3.1 90 +2 +2 1004.4 991.7
03 17.06 СЗ 4 50 км 9/3 600 м
[Sc Ac trans]
+5.9 +0.2 67 +2 +3 1005.5 992.9 +4.4 1
06 17.06 С 4
{10}
50 км 9/3 600 м
[Sc Ac As]
+7.2 -0.5 58 +4 +6 1006.7 994.1
09 17.06 СЗ 4 50 км 8/4 600 м
[Cb cap Ac trans Cs]
+10.1 +0.1 50 +8 +11 1006.8 994.4
12 17.06 СЗ 3
{10}
50 км 9/4 600 м
[Cb cap Ac trans Ci sp]
+11.5 +1.7 51 +10 +13 1007.3 994.9
15 17.06 СЗ 2 50 км 8/4 600 м
[Cb cap Ac trans Cs]
+12.9 +1.8 47 +12 +13 1007.1 994.8 +13.5
18 17.06 штиль 0 50 км 5/0
[Ac cast]
+9.1 +5.5 78 +8 +8 1006.5 994.0
00 18.06 С 2 50 км 6/0
[Ac cast Cs]
+5.2 +1.3 76 +3 +3 1006.6 994.1
03 18.06 ЮЗ 2 50 км 3/0
[Ci sp]
+9.0 +2.7 65 +8 +11 1006.9 994.4 +2.1
06 18.06 З 4 50 км 4/1 600 м
[Cu med, cong Ac trans Cc]
+15.1 +1.6 40 +14 +19 1005.5 993.3
09 18.06 З 5
{10}
50 км 6/5 600 м
[Cu med, cong Cc]
+18.0 +1.5 33 +18 +21 1004.6 992.5
12 18.06 СЗ 3
{10}
50 км 8/5 600 м
[Cu med, cong Ac trans Ci]
+18.7 +1.7 32 +19 +22 1003.8 991.8
15 18.06 З 4 50 км 3/3 600 м
[Cu med, cong]
+19.4 +1.8 31 +20 +21 1003.3 991.3 +20.5
18 18.06 С 3 50 км 6/3 600 м
[Cu hum Ac trans Cs]
+15.5 +2.3 41 +15 +15 1004.4 992.2
00 19.06 С 2 50 км ясно +4.7 +1.2 78 +2 +2 1007.1 994.4
03 19.06 СВ 2 50 км 1/0
[Ci fib]
+10.3 +2.3 58 +9 +13 1007.7 995.3 +3.9
06 19.06 СЗ 3 50 км 3/3 1000 м
[Cu hum]
+13.3 +2.2 47 +12 +18 1007.8 995.5
09 19.06 З 4 50 км 3/0
[Ci]
+16.3 +0.8 35 +16 +24 1007.7 995.5
12 19.06 З 2 50 км 9/0
[As op Ci fib]
+16.9 +0.9 34 +17 +20 1007.7 995.5
15 19.06 СЗ 3 50 км 9/3 600 м
[Sc Ac cast Cs]
+17.6 -1.1 28 +18 +18 1007.3 995.2 +18.7

 

Местоположение метеостанции Весляна (Коми, Россия): широта 62.98 долгота 50.90 высота над уровнем моря 103 м.

В архиве по умолчанию представлена погода в Весляне за последнюю неделю. Архивные данные за месяц целиком и за предыдущие месяцы, начиная с января 2011 года, Вы можете получить, выбрав интересующий диапазон дат из раскрывающегося списка и нажав кнопку "Ввод!".


*Определитесь, кто Вы:
робот инопланетянин человек

Внимание! Время в таблицах - всемирное. Для получения местного времени необходимо прибавить поправку, которая равна 3 ч.

Смотрите также архив погоды в соседних городах и на ближайших метеорологических станциях:

Погода в Усть-Выми (Коми, Россия) (87 км)
Погода в Кослане (Коми, Россия) (112 км)
Погода в Луни (Коми, Россия) (116 км)
Погода в Яренске (Архангельская область, Россия) (128 км)
Погода в Сыктывкаре (Коми, Россия) (145 км)
Погода в Вендинге (Коми, Россия) (158 км)
Погода в Ухте (Коми, Россия) (159 км)
Погода в Кедва-Воме (Коми, Россия) (191 км)
Погода в Помоздино (Коми, Россия) (191 км)
Погода в Слободчиково (Архангельская область, Россия) (193 км)

Пояснения к столбцам:

Ветер - указаны скорость ветра в м/с - средняя за 10 мин, порывы в срок и между сроками (в фигурных скобках) и направление, откуда дует ветер: С - северный, СВ - северо-восточный, В - восточный, ЮВ - юго-восточный, Ю - южный, ЮЗ - юго-западный, З - западный, СЗ - северо-западный.
Видимость - горизонтальная дальность видимости в метрах или километрах. При видимости от 1 до 10 км при отсутствии осадков обычно наблюдается дымка, при ухудшении видимости до 1 км и менее - туман. В сухую погоду видимость может ухудшаться дымом, пылью или мглою.
Явления - указаны атмосферные явления, наблюдавшиеся в срок или в последний час перед сроком; фигурными скобками обозначены явления, наблюдавшиеся между сроками (за 1-3 часа до срока); квадратными скобками обозначены град или гололедные отложения с указанием их диаметра в мм.
Облачность - указаны через наклонную черту общая и нижняя облачность в баллах и высота нижней границы облаков в метрах; квадратными скобками обозначены формы облаков: Ci - перистые, Cs - перисто-слоистые, Cc - перисто-кучевые, Ac - высококучевые, As - высокослоистые, Sc - слоисто-кучевые, Ns - слоисто-дождевые, Cu - кучевые, Cb - кучево-дождевые. Подробнее классификацию облаков см. в Атласе облаков (PDF).
T - Температура воздуха - температура, измеренная на высоте 2 м над землей.
Td - Температура точки росы - температура, при понижении до которой содержащийся в воздухе водяной пар достигнет насыщения.
f - Относительная влажность воздуха - влажноcть воздуха, измеренная на высоте 2 м над землей.
Te - Эффективная температура - температура, которую ощущает одетый по сезону человек в тени. Характеристика душности погоды. При расчете учитывается влияние влажности воздуха и скорости ветра на теплоощущения человека.
Tes - Эффективная температура на солнце - температура, которую ощущает человек, с поправкой на солнечный нагрев. Характеристика знойности погоды. Зависит от высоты солнца над горизонтом, облачности и скорости ветра. Ночью, в пасмурную погоду, а также при ветре 12 м/с и более поправка равна нулю.
P - Атмосферное давление - приведенное к уровню моря атмосферное давление.
Po - Атмосферное давление - измеренное на уровне метеостанции атмосферное давление.
Tmin - Минимальная температура - минимум температуры воздуха на высоте 2 м над землей.
Tmax - Максимальная температура - максимум температуры воздуха на высоте 2 м над землей.
R - Количество осадков - Количество выпавших осадков за период времени, мм. При наведении курсора мыши на число - период времени, за который выпало указанное количество осадков.
R24 - Количество осадков - Количество выпавших осадков за 24 часа, мм.
S - Снежный покров - Высота снежного покрова, см. При наведении курсора мыши на число - состояние снежного покрова и степень покрытия местности в баллах.